Location: Belfast
(54.5830°N, 5.9330°W)
Time: 12:59:26
(UTC+00:00)

ISS - Pass Details

Date: 17 December 2017
Orbit: 402 x 406 km, 51.6° (Epoch: 16 December)

Event Time Altitude Azimuth Distance (km) Brightness Sun altitude
Rises 16:42:39 0° 276° (W) 2,333 1.0 -6.0°
Reaches altitude 10° 16:45:10 10° 257° (WSW) 1,469 0.4 -6.3°
Maximum altitude 16:47:30 18° 211° (SSW) 1,072 -0.7 -6.6°
Drops below altitude 10° 16:49:50 10° 166° (SSE) 1,462 -0.8 -6.9°
Sets 16:52:19 0° 147° (SSE) 2,318 0.0 -7.2°
